Regional Weather Roundup
Issued by NWS

Home | Current Version | Previous Version | Graphics & Text | Print | Product List | Glossary On
Versions: 1 2 3 4 5 6 7 8 9 10 11 12 13 14 15 16 17 18 19 20 21 22 23 24 25 26 27 28 29 30 31 32 33 34 35 36 37 38 39 40 41 42 43 44 45 46 47 48 49 50
322
ASUS45 KSLC 202110
RWRUT

UTAH REGIONAL WEATHER ROUNDUP
NATIONAL WEATHER SERVICE SALT LAKE CITY UT
300 PM MDT FRI APR 20 2018

UTZ001>011-023>025-202200-

NORTHERN UTAH

CITY           SKY/WX    TMP DP  RH WIND       PRES   REMARKS
BRIGHAM CITY   PTSUNNY   62  31  30 S8        29.98F
HILL AFB       PTSUNNY   58  35  42 W7        30.00R
LOGAN          PTSUNNY   64  36  35 S13       29.97S
OGDEN          CLOUDY    61  33  35 NE5       29.99R
SALT LAKE CITY PTSUNNY   60  35  39 N14       29.99R
TOOELE VALLEY  PTSUNNY   61  37  41 N14       30.01R
WENDOVER       SUNNY     68  23  18 N21       30.02R
HEBER CITY     CLOUDY    50  32  50 CALM      29.98R
WEST JORDAN    CLOUDY    57  37  46 NW13      30.00R

$$

UTZ011>015-024>027-202200-

CENTRAL/NORTHEAST UTAH

CITY           SKY/WX    TMP DP  RH WIND       PRES   REMARKS
PROVO AIRPORT  CLOUDY    52  37  56 VRB3      30.02R
MOAB/CANYONLAN MOSUNNY   58  22  24 SW15G21   29.90S
DELTA          PTSUNNY   48  41  76 S5        30.05S
PRICE          CLOUDY    52  23  32 N12       29.97R
RICHFIELD      SUNNY     50  34  53 SW5       30.02R
ROOSEVELT      FLURRIES  45  34  65 W9        30.03R
VERNAL         LGT RAIN  43  36  76 W5        30.00R

$$

UTZ013>016-019>022-027-202200-

SOUTHERN UTAH

CITY           SKY/WX    TMP DP  RH WIND       PRES   REMARKS
BRYCE CANYON   MOSUNNY   45  26  47 N18       30.03R
CEDAR CITY     CLOUDY    43  39  86 VRB3      30.08S
MILFORD        PTSUNNY   49  40  71 E8        30.07R
ST GEORGE      CLOUDY    59  41  51 W15G23    30.05S
HANKSVILLE     MOSUNNY   55  30  38 SE12      29.99S
KANAB          PTSUNNY   55  34  44 NW15G25   30.04R
BLANDING         N/A     48  20  33 SW9G21    30.02R

$$

REGIONAL REPORTS     COLORADO/ARIZONA

CITY           SKY/WX    TMP DP  RH WIND       PRES   REMARKS
CRAIG, CO      CLOUDY    40  37  89 SW15      29.91R WCI  32
GRAND JUNCTION CLOUDY    46  31  55 N12       29.98R
RIFLE, CO      LGT RAIN  39  34  82 W10G20    29.99R WCI  32
MONTROSE, CO   CLOUDY    48  23  37 NW14      29.97R
CORTEZ, CO     PTSUNNY   50  15  24 S9        29.95F
COLORADO CITY    N/A     54  39  58 NW24G33   30.06R
PAGE, AZ       CLOUDY    48  37  65 SW6       29.98F
GRAND CANYON   NOT AVBL
KINGMAN, AZ    SUNNY     70  27  20 W8        30.02R
FLAGSTAFF, AZ  LGT RAIN  38  32  79 W9G20     30.04R WCI  31

$$

REGIONAL REPORTS    NEVADA/IDAHO/WYOMING

CITY           SKY/WX    TMP DP  RH WIND       PRES   REMARKS
LAS VEGAS, NV  MOSUNNY   79  28  15 NW14G25   29.97F
ELY, NY        SUNNY     62  17  17 N25G37    30.07R
ELKO, NV       SUNNY     63  18  17 NW14      30.13R
POCATELLO, ID  MOSUNNY   68  27  21 NW12      30.00S
BURLEY, ID     SUNNY     62  28  27 W17G37    30.05S
FORT BRIDGER,    N/A     45  34  65 SW8       30.04S
EVANSTON, WY   CLOUDY    46  31  55 CALM      30.03S
ROCK SPRINGS,  CLOUDY    51  24  34 NE29G36   29.95R
KEMMERER, WY   PTSUNNY   48  32  53 W15G21    30.00S

$$




USA.gov is the U.S. government's official web portal to all federal, state and local government web resources and services.